Location: Novokuznetsk
(53.7500°N, 87.1000°E)
Time: 22:51:58
(UTC+06:00)

ISS - Pass Details

Date: 18 May 2021
Orbit: 417 x 422 km, 51.6° (Epoch: 16 June)

Event Time Altitude Azimuth Distance (km) Brightness Sun altitude
Rises 22:14:51 0° 254° (WSW) 2,363 0.2 -12.6°
Reaches altitude 10° 22:16:58 10° 251° (WSW) 1,501 -0.9 -12.7°
Maximum altitude 22:20:17 56° 172° (S) 504 -3.7 -13.0°
Drops below altitude 10° 22:23:36 10° 93° (E) 1,506 -1.2 -13.2°
Enters shadow 22:24:46 - 91° (E) 1,982 -0.6 -13.2°
